STARLINK-2318

Last updated on Sat Apr 24 2021 00:02:02 GMT+0000 (Coordinated Universal Time)

1 48025U 21024BA 21113.25001157 .00060605 00000-0 43278-3 0 9991 2 48025 53.0485 55.6529 0001385 77.5406 96.8985 15.73214289 1822

Satellite not in orbit